Tracking 28779 objects as of 15-Apr-2024
HD Live streaming from Space Station
objects crossing your sky now

FENGYUN 1C DEB

Track FENGYUN 1C DEB now!
10-day predictions


NORAD ID: 29895
Int'l Code: 1999-025GR
Perigee: 663.9 km
Apogee: 1,163.8 km
Inclination: 99.9 °
Period: 103.1 minutes
Semi major axis: 7284 km
RCS: 0.0261 m2 (small)
Launch date: May 10, 1999
Source: People's Republic of China (PRC)
Launch site: Taiyaun Space Center, China (TSC)

Note: This is SATELLITE DEBRIS
Your satellite tracking list
Your tracking list is empty




NASA's NSSDC Master Catalog

Two Line Element Set (TLE):
1 29895U 99025GR  24106.08512019  .00009512  00000-0  42213-2 0  9998
2 29895  99.9090 155.3130 0343104 183.4054 234.8729 13.96281028870188
Source of the keplerian elements: AFSPC